TimeEST,TemperatureF,Dew PointF,Humidity,Sea Level PressureIn,VisibilityMPH,Wind Direction,Wind SpeedMPH,Gust SpeedMPH,PrecipitationIn,Events,Conditions,WindDirDegrees,DateUTC
12:53 AM,12.0,1.9,64,29.65,10.0,SSW,18.4,26.5,N/A,,Scattered Clouds,200,2014-02-27 05:53:00
1:53 AM,12.0,1.9,64,29.62,10.0,SSW,20.7,-,N/A,,Scattered Clouds,200,2014-02-27 06:53:00
2:53 AM,12.9,3.0,65,29.58,10.0,SSW,19.6,27.6,N/A,,Mostly Cloudy,200,2014-02-27 07:53:00
3:53 AM,14.0,5.0,67,29.56,5.0,SW,19.6,27.6,0.00,Snow,Light Snow,220,2014-02-27 08:53:00
4:23 AM,14.0,6.8,73,29.53,4.0,SW,17.3,-,0.00,Snow,Light Snow,220,2014-02-27 09:23:00
4:29 AM,14.0,6.8,73,29.53,1.5,SW,18.4,25.3,0.00,Snow,Light Snow,220,2014-02-27 09:29:00
4:53 AM,14.0,8.1,77,29.57,1.5,SW,18.4,-,0.00,Snow,Light Snow,220,2014-02-27 09:53:00
5:03 AM,14.0,8.6,79,29.54,0.8,SW,15.0,-,0.00,Snow,Light Snow,220,2014-02-27 10:03:00
5:16 AM,14.0,8.6,79,29.54,1.5,SW,13.8,-,0.00,Snow,Light Snow,220,2014-02-27 10:16:00
5:34 AM,15.8,8.6,73,29.55,3.0,SW,15.0,-,0.00,Snow,Light Snow,230,2014-02-27 10:34:00
5:53 AM,15.1,9.0,77,29.59,3.0,SW,13.8,-,0.00,Snow,Light Snow,230,2014-02-27 10:53:00
6:05 AM,15.8,8.6,73,29.56,1.2,West,13.8,-,0.00,Snow,Light Snow,260,2014-02-27 11:05:00
6:16 AM,15.8,10.4,79,29.57,0.8,West,16.1,-,0.00,Snow,Light Snow,270,2014-02-27 11:16:00
6:34 AM,15.8,8.6,73,29.58,1.5,West,13.8,27.6,0.01,Snow,Light Snow,260,2014-02-27 11:34:00
6:53 AM,14.0,6.1,71,29.62,1.5,West,13.8,24.2,0.01,Snow,Light Snow,270,2014-02-27 11:53:00
7:00 AM,14.0,5.0,67,29.59,2.5,West,12.7,-,0.00,Snow,Light Snow,270,2014-02-27 12:00:00
7:30 AM,14.0,5.0,67,29.62,3.0,West,20.7,34.5,0.00,Snow,Light Snow,280,2014-02-27 12:30:00
7:47 AM,12.2,5.0,73,29.64,2.0,West,24.2,39.1,0.00,Snow,Light Snow,280,2014-02-27 12:47:00
7:53 AM,12.0,3.0,67,29.68,3.0,West,19.6,36.8,0.00,Snow,Light Snow,280,2014-02-27 12:53:00
8:05 AM,12.2,1.4,62,29.65,3.0,West,18.4,26.5,0.00,Snow,Light Snow,280,2014-02-27 13:05:00
8:32 AM,10.4,5.0,79,29.69,0.8,NW,17.3,29.9,0.00,Snow,Light Snow,320,2014-02-27 13:32:00
8:53 AM,10.9,3.0,70,29.75,3.0,WNW,15.0,21.9,0.00,Snow,Light Snow,300,2014-02-27 13:53:00
9:06 AM,10.4,3.2,73,29.72,1.5,WNW,16.1,21.9,0.00,Snow,Light Snow,300,2014-02-27 14:06:00
9:19 AM,8.6,3.2,79,29.74,0.8,NNW,19.6,31.1,0.00,Snow,Light Snow,330,2014-02-27 14:19:00
9:50 AM,8.6,-0.4,67,29.78,1.5,NNW,24.2,31.1,0.00,Snow,Light Snow,330,2014-02-27 14:50:00
9:53 AM,8.1,-4.0,58,29.83,1.5,NW,24.2,35.7,0.00,Snow,Light Snow,320,2014-02-27 14:53:00
10:05 AM,8.6,-7.6,48,29.81,3.0,NW,19.6,36.8,0.00,Snow,Light Snow,320,2014-02-27 15:05:00
10:18 AM,8.6,-5.8,52,29.82,5.0,NW,25.3,34.5,0.00,Snow,Light Snow,310,2014-02-27 15:18:00
10:53 AM,9.0,-8.0,46,29.89,10.0,NW,18.4,32.2,0.00,,Mostly Cloudy,310,2014-02-27 15:53:00
11:53 AM,10.9,-11.0,37,29.94,10.0,West,26.5,32.2,N/A,,Overcast,280,2014-02-27 16:53:00
12:53 PM,10.9,-2.9,54,29.98,5.0,West,17.3,24.2,0.00,Snow,Light Snow,280,2014-02-27 17:53:00
1:53 PM,10.0,-9.0,42,30.01,9.0,NW,18.4,24.2,0.00,,Mostly Cloudy,310,2014-02-27 18:53:00
2:53 PM,12.0,-9.9,37,30.05,10.0,West,21.9,26.5,N/A,,Mostly Cloudy,270,2014-02-27 19:53:00
3:53 PM,10.9,-9.9,39,30.08,10.0,WNW,16.1,-,N/A,,Mostly Cloudy,290,2014-02-27 20:53:00
4:53 PM,10.0,-9.9,40,30.10,10.0,West,15.0,21.9,N/A,,Mostly Cloudy,260,2014-02-27 21:53:00
5:53 PM,9.0,-9.0,44,30.14,10.0,West,11.5,-,N/A,,Scattered Clouds,280,2014-02-27 22:53:00
6:53 PM,8.1,-8.0,48,30.17,10.0,West,5.8,-,N/A,,Scattered Clouds,270,2014-02-27 23:53:00
7:53 PM,7.0,-9.0,48,30.19,10.0,WNW,9.2,-,N/A,,Partly Cloudy,290,2014-02-28 00:53:00
8:53 PM,6.1,-8.0,53,30.21,10.0,NW,5.8,-,N/A,,Clear,310,2014-02-28 01:53:00
9:53 PM,5.0,-8.0,55,30.24,10.0,WNW,4.6,-,N/A,,Clear,300,2014-02-28 02:53:00
10:53 PM,5.0,-8.0,55,30.25,10.0,NW,4.6,-,N/A,,Clear,310,2014-02-28 03:53:00
11:53 PM,3.9,-8.0,58,30.26,10.0,NW,3.5,-,N/A,,Clear,320,2014-02-28 04:53:00